Location: Podia
(1.5569°N, 32.3469°E)
Time: 09:48:01
(UTC+00:00)

N. Korean satellite - Pass Details

Date: 17 August 2020
Orbit: 455 x 503 km, 97.2° (Epoch: 22 September)

Event Time Altitude Azimuth Distance (km) Brightness Sun altitude
Rises 02:09:13 0° 47° (NE) 2,569 11.2 -25.2°
Reaches altitude 10° 02:12:44 10° 84° (E) 1,700 10.4 -24.4°
Maximum altitude 02:13:48 11° 101° (E) 1,637 10.1 -24.1°
Drops below altitude 10° 02:14:52 10° 118° (ESE) 1,706 9.9 -23.8°
Sets 02:18:24 0° 155° (SSE) 2,597 10.4 -23.0°
